Location: Smithers
(54.7670°N, 127.1670°W)
Time: 09:09:28
(UTC-07:00)

Daily predictions for brighter satellites

Satellite Brightness Start Highest point End
(mag) Time Altitude Azimuth Time Altitude Azimuth Time Altitude Azimuth
Cosmos 1455 3.4 23:01:42 10° N 23:05:04 29° ENE 23:08:25 10° SE
H-2A R/B 4.5 23:04:26 10° ENE 23:05:46 11° NE 23:07:06 10° NNE
Landsat 7 4.0 23:01:28 10° S 23:06:14 73° WSW 23:11:01 10° NNW
Cosmos 1300 2.9 23:02:52 10° NNW 23:06:42 74° W 23:10:31 10° S
Spot 1 4.3 23:03:26 10° SSE 23:07:55 85° ENE 23:12:42 10° NNW
Cosmos 1674 3.6 23:04:19 10° SSW 23:08:05 52° WNW 23:11:53 10° N
DMSP B5D2-2 4.1 23:04:24 10° NNE 23:09:42 84° ESE 23:14:56 10° SSW
Cosmos 1726 3.7 23:07:20 10° NNW 23:10:44 32° W 23:14:07 10° SSW
ERS-1 Rocket 4.2 23:09:22 10° SSW 23:14:03 38° W 23:18:46 10° NNW
Iridium 75 4.1 23:14:17 10° N 23:16:11 38° E 23:17:45 11° SSE
Cosmos 2221 2.7 23:12:32 10° NNW 23:16:54 76° W 23:21:11 10° S
ATLAS 2AS CENTAUR R/B 3.2 23:09:30 10° SW 23:17:31 86° SE 23:25:42 10° NE
Cosmos 1553 Rocket 4.2 23:11:42 10° SSW 23:17:45 73° WNW 23:23:53 10° N
Aureole 3 Rocket 4.3 23:12:43 10° SSE 23:19:14 45° E 23:23:59 10° NNE
Meteor 1-29 3.4 23:16:06 10° NNE 23:19:24 44° E 23:22:39 10° S
RESURS DK-1 4.0 23:18:09 10° SSE 23:20:58 18° ESE 23:23:50 10° ENE
Cosmos 1992 Rocket 4.1 23:18:20 10° NNW 23:23:36 83° WSW 23:28:49 10° SSE
Terra 2.0 23:20:54 10° S 23:25:40 72° WSW 23:30:28 10° NNW
Okean 3 Rocket 4.1 23:22:03 10° SSE 23:26:12 45° E 23:30:25 10° NNE
Cosmos 2251 Rocket 3.5 23:21:59 10° SSW 23:27:18 76° ESE 23:32:38 10° NNE
Cosmos 1328 Rocket 4.4 23:26:38 10° N 23:30:44 39° ENE 23:34:50 10° SE
COSMOS 2487 4.3 23:29:31 10° N 23:32:26 23° NE 23:35:22 10° ESE
Cosmos 2228 Rocket 4.4 23:29:27 10° N 23:33:27 30° ENE 23:37:23 10° SE
SAR-Lupe-4 4.2 23:32:00 10° SE 23:35:25 45° ENE 23:38:54 10° N
Cosmos 1328 3.9 23:32:56 10° S 23:36:49 59° E 23:40:44 10° NNE
Cosmos 1461 3.4 23:33:57 10° SSW 23:38:32 54° SE 23:43:13 10° NE
Cosmos 2315 Rocket 4.1 23:32:49 10° S 23:39:05 70° E 23:45:28 10° NNE
SL-8 R/B 4.3 23:35:31 10° SW 23:39:55 36° SSE 23:44:20 10° ESE
ADEOS Rocket 4.5 23:36:01 10° NE 23:40:31 22° E 23:45:17 10° SE
Meteor 2-10 Rocket 4.4 23:40:54 10° N 23:45:44 40° ENE 23:50:42 10° SE
CENTAUR R/B 3.3 23:38:48 10° NW 23:46:23 63° SW 23:54:32 11° SSE
Cosmos 1441 Rocket 3.6 23:42:37 10° N 23:46:23 53° ENE 23:49:46 12° SSE
Cosmos 2184 Rocket 4.3 23:40:57 10° N 23:47:17 62° ENE 23:53:16 11° SSE
CZ-2C R/B 3.7 23:42:10 10° S 23:47:55 62° WSW 23:53:34 10° NNW
NOSS 2-2 (E) 4.0 23:47:57 10° SSW 23:51:45 41° SE 23:56:18 10° ENE
Cosmos 2278 Rocket 2.2 23:46:57 10° SSW 23:52:38 83° ESE 23:58:22 10° NE
SAR-Lupe-1 4.4 23:50:23 12° SSE 23:53:36 59° ENE 23:57:10 10° N
